Location: Bartshausen
(51.8454°N, 9.8167°E)
Time: 01:15:30
(UTC+00:00)

SKYMED 2 - Pass Details

Date: 08 November 2025
Orbit: 621 x 623 km, 97.9° (Epoch: 13 December)

Event Time Altitude Azimuth Distance (km) Brightness Sun altitude
Rises 04:53:26 0° 182° (S) 2,895 7.1 -14.7°
Reaches altitude 10° 04:55:42 10° 189° (S) 1,993 6.2 -14.4°
Maximum altitude 04:59:50 44° 261° (W) 873 3.9 -13.7°
Drops below altitude 10° 05:04:02 10° 334° (NNW) 2,008 5.8 -13.1°
Sets 05:06:19 0° 341° (NNW) 2,920 6.7 -12.7°
